Погода в Алфёрове

Россия / Владимирская область     55°30′57″N   41°13′07″E
темп.,
°C
ветер,
м/с
пор.,
м/с
влажн.,
%
обл.,
%
осадки,
мм/ч
давл.,
гПа
погр.,
м
25 июля, вс
вс2500:00+15с1155100 0.0 101713
03:00+14з1258100 0.0 101823
06:00+14з1168100 0.0 102071
09:00+18з12503 0.0 1020641
12:00+21сз3432100 0.0 10202810
15:00+20ююз123928 0.0 1021758
18:00+20сз244359 0.0 1021600
21:00+17юз22535 0.0 102120
26 июля, пн
пн2600:00+15з116089 0.0 102214
03:00+12зюз226999 0.0 102311
06:00+15юз2262100 0.0 102356
09:00+19юз235582 0.0 1023244
12:00+23з344182 0.0 10231322
15:00+24сз3437100 0.0 10221891
18:00+23зсз34425 0.0 10221241
21:00+17зюз225945 0.0 102225
27 июля, вт
вт2700:00+18зюз2457100 0.0 102286
03:00+17зюз275629 0.0 1022161
06:00+17з25715 0.0 1022124
09:00+23сз23485 0.0 1021629
12:00+27сз233347 0.0 10202584
15:00+26зсз244366 0.0 10191010
18:00+26ссз124755 0.0 1018475
21:00+19ююв226645 0.0 101831
28 июля, ср
ср2800:00+17всв127496 0.1 101920
03:00+18ююз247083 0.1 101876
06:00+17з00751 0.1 101739
09:00+24зсз13494 0.1 1016592
12:00+28зюз243748 0.0 10152275
15:00+27юз4540100 0.0 10131707
18:00+21з1271100 0.8 101242
21:00+17юз41094100 3.9 1012249
29 июля, чт
чт2900:00+17в2394100 1.6 101197
03:00+17юв3996100 4.8 1008448
06:00+16юв3897100 2.9 1006401
09:00+17юз2597100 3.4 1005374
12:00+20зюз4890100 0.4 1005668
15:00+19з41091100 1.1 1005746
18:00+21зсз410830 0.3 10051125
21:00+17з27964 0.4 1006204